sat.trackr.live / text

‹ back to catalog

STARLINK-32387

NORAD 61704 · 2024-195T

PAYLOAD ACTIVE UNKNOWN

§ Identity

Operator
Country
US
Launch date
2024-10-30
Launch site
AFWTR
Launch vehicle
Mass (kg)
RCS (m²)

Purposes: comms

External: N2YO · Heavens-Above · Gunter

§ Orbital elements

Epoch: 2026-09-21T15:48:49.931136Z

Period
93.85 min
Inclination
53.1624°
Eccentricity
0.0001325
Mean motion
15.34396521 rev/d
Perigee alt
461.8 km
Apogee alt
463.6 km
Semi-major
6,840.9 km
B*
6.8259e-7
RAAN
320.2525°
Arg perigee
89.5050°
Mean anomaly
270.6104°
Rev number
10,725

§ Raw data

STARLINK-323871 61704U 24195T   26264.65891124 -.00000353  00000+0  68259-6 0  99922 61704  53.1624 320.2525 0001325  89.5050 270.6104 15.34396521107252

JSON: /api/v1/satellites/61704 · /tle

For live sub-satellite position, see the globe view (requires WebGL).

§ Visibility from observer

Set your observer location to see the next 7 days of passes ≥ 10°. The values pass through the URL so the page stays shareable.

No JS? Fill the form by hand. The geolocation button needs JavaScript.